Zurück zum Katalog

STARLINK-35170

AktivKommunikationSSO
NORAD 65532·PAYLOAD·🇺🇸 United States

Gestartet Sep 6, 2025 von Cape Canaveral Space Force Station

Loading…

Nächste Überflüge (nächste 24 Stunden)

TLE

AktuellSource: CelesTrak SupGP

Epoche: Sep 15, 2026, 03:05 UTC

1 65532C 25200N   26258.12895833  .00074564  00000+0  23134-2 0  2580
2 65532  97.2842 324.6387 0000847  92.1882 172.7865 15.33419795    11

Verfolge STARLINK-35170 in Echtzeit mit AllMySat

Download on the App Store